Simultaneous Nadir Overpasses (SNOs) Predictions

Prediction of SNOs between GOES-17 and METOP-C Satellite Orbit:

Table of predicted SNOs for the next 14.0 days since TLE Epoch: 8/20/2022
Index Date Time (GOES-17) GOES-17 Lat,Lon METOP-C Lat,Lon Distance(km) Time Diff (sec)
1 08/20/2022 06:45:21 0.03,-137.31 -0.33,-139.00 192.06 80
2 08/21/2022 06:27:20 0.02,-137.31 0.75,-134.00 377.72 80
3 08/22/2022 18:43:31 -0.03,-137.32 0.27,-138.56 141.52 80
4 08/23/2022 18:25:32 -0.03,-137.32 -0.87,-133.57 427.89 80
5 08/25/2022 06:41:51 0.04,-137.32 -0.13,-138.17 96.37 80
6 08/26/2022 06:23:51 0.03,-137.32 0.95,-133.17 472.67 80
7 08/27/2022 18:40:02 -0.04,-137.32 0.05,-137.73 47.31 80
8 08/30/2022 06:38:21 0.04,-137.30 0.02,-137.33 3.95 80
9 09/01/2022 18:39:12 -0.04,-137.28 -0.12,-136.89 44.04 80
